Flag for Venezuela Weather past 2 weeks in Barquisimeto, Venezuela

Now
70 °F

Partly sunny.


Feels Like: 70 °F
Forecast: 73 / 92 °F
Wind: 3 mph from Southeast

Location: Barquisimeto Airport

Current Time: Jul 4, 2015 at 6:19:43 AM

Latest Report: Jul 4, 2015 at 5:30 AM


Visibility: N/A

Pressure: 29.98 "Hg (28.06 "Hg at 569m altitude)

Humidity: 94%

Dew point: 68 °F

Location of BarquisimetoLocation

Historic Weather in Barquisimeto — Graph

°F

Barquisimeto temperature yesterday

Maximum temperature yesterday: 86 °F (at 2:30 PM)
Minimum temperature yesterday: 70 °F (at 5:30 AM)
Average temperature yesterday: 78 °F

Past Weeks' High & Low Weather Summary

 TemperatureHumidityPressure
High88 °F (Jul 1, 2:30 PM)94% (Jun 19, 5:30 AM)30.12 "Hg (Jun 19, 5:30 AM)
Low68 °F (Jun 23, 4:30 AM)35% (Jun 19, 2:30 PM)29.95 "Hg (Jun 19, 3:30 PM)
Average77 °F73%30.05 "Hg
* Reported Jun 19 4:30 AM — Jul 4 4:30 AM, Barquisimeto, Weather by CustomWeather, © 2015

Note: Actual official high and low records may vary slightly from our data, if they occured in-between our weather recording intervals... More about our weather records

Advertising

Barquisimeto weather history for previous 24 hours

 ConditionsComfort  
Time TempWeatherWind HumidityBarometerVisibility
4:30 AM
Sat, Jul 4
70 °FPassing clouds.10 mph94%30.01 "HgN/A
10:30 PM
Fri, Jul 3
73 °FPassing clouds.9 mph83%30.01 "HgN/A
9:30 PM73 °FPassing clouds.9 mph83%30.01 "HgN/A
8:30 PM75 °FPassing clouds.9 mph78%29.98 "HgN/A
7:30 PM79 °FPassing clouds.7 mph65%29.98 "HgN/A
6:30 PM82 °FPassing clouds.9 mph58%29.98 "HgN/A
5:30 PM84 °FPassing clouds.13 mph55%29.98 "HgN/A
4:30 PM86 °FPassing clouds.8 mph49%29.98 "HgN/A
3:30 PM86 °FScattered clouds.13 mph49%29.98 "HgN/A
2:30 PM86 °FScattered clouds.15 mph49%30.01 "HgN/A
1:30 PM84 °FScattered clouds.16 mph55%30.04 "HgN/A
12:30 PM84 °FScattered clouds.13 mph58%30.04 "HgN/A
11:30 AM81 °FPartly sunny.10 mph66%30.07 "HgN/A
10:30 AM79 °FPartly sunny.9 mph70%30.07 "HgN/A
9:30 AM77 °FPartly sunny.7 mph74%30.07 "HgN/A
8:30 AM77 °FScattered clouds.8 mph74%30.07 "HgN/A
7:30 AM72 °FPartly sunny.7 mph94%30.07 "HgN/A
6:30 AM70 °FScattered clouds.6 mph94%30.04 "HgN/A
Weather by CustomWeather, © 2015

See weather overviewHow to use our weather pages